Time,TemperatureF,DewpointF,PressureIn,WindDirection,WindDirectionDegrees,WindSpeedMPH,WindSpeedGustMPH,Humidity,HourlyPrecipIn,Conditions,Clouds,dailyrainin,SoftwareType,DateUTC
2013-05-28 00:00:00,73.3,62.5,29.70,SSE,153,5.0,5.0,69,0.00,,,0.00,Wunderground v.1.15,2013-05-28 05:00:00,
2013-05-28 00:05:00,73.2,62.4,29.70,South,180,4.0,5.0,69,0.00,,,0.00,Wunderground v.1.15,2013-05-28 05:05:00,
2013-05-28 00:15:00,73.0,62.6,29.70,SSE,161,4.0,5.0,70,0.00,,,0.00,Wunderground v.1.15,2013-05-28 05:15:00,
2013-05-28 00:20:00,72.8,62.4,29.70,SE,146,3.0,5.0,70,0.00,,,0.00,Wunderground v.1.15,2013-05-28 05:20:00,
2013-05-28 00:30:00,72.5,62.6,29.70,SE,146,3.0,4.0,71,0.00,,,0.00,Wunderground v.1.15,2013-05-28 05:30:00,
2013-05-28 00:39:00,72.5,62.6,29.70,South,179,4.0,5.0,71,0.00,,,0.00,Wunderground v.1.15,2013-05-28 05:39:00,
2013-05-28 00:45:00,72.3,62.4,29.70,SSE,155,4.0,5.0,71,0.00,,,0.00,Wunderground v.1.15,2013-05-28 05:45:00,
2013-05-28 00:55:00,72.1,62.6,29.70,SE,138,3.0,3.0,72,0.00,,,0.00,Wunderground v.1.15,2013-05-28 05:55:00,
2013-05-28 01:05:00,72.0,62.5,29.69,East,94,2.0,3.0,72,0.00,,,0.00,Wunderground v.1.15,2013-05-28 06:05:00,
2013-05-28 01:15:00,71.8,62.3,29.69,ESE,114,3.0,4.0,72,0.00,,,0.00,Wunderground v.1.15,2013-05-28 06:15:00,
2013-05-28 01:25:00,71.6,62.9,29.68,SE,125,2.0,2.0,74,0.00,,,0.00,Wunderground v.1.15,2013-05-28 06:25:00,
2013-05-28 01:30:00,71.3,62.6,29.68,SE,127,1.0,4.0,74,0.00,,,0.00,Wunderground v.1.15,2013-05-28 06:30:00,
2013-05-28 01:40:00,70.9,62.6,29.67,SE,143,2.0,3.0,75,0.00,,,0.00,Wunderground v.1.15,2013-05-28 06:40:00,
2013-05-28 01:50:00,70.9,62.2,29.66,NE,55,3.0,3.0,74,0.00,,,0.00,Wunderground v.1.15,2013-05-28 06:50:00,
2013-05-28 02:00:00,70.8,62.5,29.66,East,79,3.0,3.0,75,0.00,,,0.00,Wunderground v.1.15,2013-05-28 07:00:00,
2013-05-28 02:05:00,70.8,62.5,29.64,SE,140,4.0,4.0,75,0.00,,,0.00,Wunderground v.1.15,2013-05-28 07:05:00,
2013-05-28 02:10:00,70.8,62.5,29.64,SE,132,4.0,7.0,75,0.00,,,0.00,Wunderground v.1.15,2013-05-28 07:10:00,
2013-05-28 02:19:00,70.6,62.3,29.65,SE,136,3.0,3.0,75,0.00,,,0.00,Wunderground v.1.15,2013-05-28 07:19:00,
2013-05-28 02:25:00,70.4,62.5,29.65,SSE,156,3.0,4.0,76,0.00,,,0.00,Wunderground v.1.15,2013-05-28 07:25:00,
2013-05-28 02:35:00,70.3,62.4,29.65,SSE,163,3.0,5.0,76,0.00,,,0.00,Wunderground v.1.15,2013-05-28 07:35:00,
2013-05-28 02:45:00,70.3,62.4,29.65,SSE,153,4.0,6.0,76,0.00,,,0.00,Wunderground v.1.15,2013-05-28 07:45:00,
2013-05-28 02:55:00,70.3,62.4,29.66,SE,130,3.0,3.0,76,0.00,,,0.00,Wunderground v.1.15,2013-05-28 07:55:00,
2013-05-28 03:05:00,70.1,62.6,29.66,SSE,156,2.0,4.0,77,0.00,,,0.00,Wunderground v.1.15,2013-05-28 08:05:00,
2013-05-28 03:15:00,70.1,62.6,29.66,SSE,161,2.0,2.0,77,0.00,,,0.00,Wunderground v.1.15,2013-05-28 08:15:00,
2013-05-28 03:20:00,69.9,62.4,29.66,SE,142,1.0,1.0,77,0.00,,,0.00,Wunderground v.1.15,2013-05-28 08:20:00,
2013-05-28 03:30:00,69.9,62.7,29.66,ESE,123,2.0,2.0,78,0.00,,,0.00,Wunderground v.1.15,2013-05-28 08:30:00,
2013-05-28 03:40:00,70.1,62.6,29.65,ESE,119,2.0,4.0,77,0.00,,,0.00,Wunderground v.1.15,2013-05-28 08:40:00,
2013-05-28 03:45:00,69.9,62.7,29.65,SE,145,2.0,4.0,78,0.00,,,0.00,Wunderground v.1.15,2013-05-28 08:45:00,
2013-05-28 03:55:00,69.9,62.7,29.65,SSE,152,2.0,2.0,78,0.00,,,0.00,Wunderground v.1.15,2013-05-28 08:55:00,
2013-05-28 04:05:00,69.9,62.7,29.65,South,178,2.0,6.0,78,0.00,,,0.00,Wunderground v.1.15,2013-05-28 09:05:00,
2013-05-28 04:15:00,69.9,62.7,29.65,ESE,117,0.0,2.0,78,0.00,,,0.00,Wunderground v.1.15,2013-05-28 09:15:00,
2013-05-28 04:25:00,69.9,62.7,29.67,ESE,118,0.0,0.0,78,0.00,,,0.00,Wunderground v.1.15,2013-05-28 09:25:00,
2013-05-28 04:35:00,69.9,62.7,29.68,ESE,118,0.0,0.0,78,0.00,,,0.00,Wunderground v.1.15,2013-05-28 09:35:00,
2013-05-28 04:40:00,70.1,62.9,29.68,ESE,118,0.0,0.0,78,0.00,,,0.00,Wunderground v.1.15,2013-05-28 09:40:00,
2013-05-28 04:50:00,70.3,63.1,29.69,ESE,118,0.0,0.0,78,0.00,,,0.00,Wunderground v.1.15,2013-05-28 09:50:00,
2013-05-28 05:00:00,70.8,63.2,29.69,South,171,1.0,4.0,77,0.00,,,0.00,Wunderground v.1.15,2013-05-28 10:00:00,
2013-05-28 05:05:00,71.1,63.1,29.69,SSE,163,2.0,4.0,76,0.00,,,0.00,Wunderground v.1.15,2013-05-28 10:05:00,
2013-05-28 05:15:00,71.6,63.3,29.69,SE,136,2.0,2.0,75,0.00,,,0.00,Wunderground v.1.15,2013-05-28 10:15:00,
2013-05-28 05:25:00,71.8,63.4,29.69,SSE,156,1.0,3.0,75,0.00,,,0.00,Wunderground v.1.15,2013-05-28 10:25:00,
2013-05-28 05:35:00,71.6,63.3,29.70,SSE,155,2.0,2.0,75,0.00,,,0.00,Wunderground v.1.15,2013-05-28 10:35:00,
2013-05-28 05:44:00,71.8,63.4,29.70,ESE,110,2.0,4.0,75,0.00,,,0.00,Wunderground v.1.15,2013-05-28 10:44:00,
2013-05-28 05:50:00,71.8,63.4,29.69,SSE,149,2.0,2.0,75,0.00,,,0.00,Wunderground v.1.15,2013-05-28 10:50:00,
2013-05-28 06:00:00,71.8,63.4,29.69,South,190,3.0,3.0,75,0.00,,,0.00,Wunderground v.1.15,2013-05-28 11:00:00,
2013-05-28 06:05:00,71.8,63.4,29.69,SSE,164,4.0,4.0,75,0.00,,,0.00,Wunderground v.1.15,2013-05-28 11:05:00,
2013-05-28 06:15:00,71.8,63.8,29.69,SSE,158,2.0,4.0,76,0.00,,,0.00,Wunderground v.1.15,2013-05-28 11:15:00,
2013-05-28 06:20:00,71.6,64.4,29.70,SSE,165,1.0,1.0,78,0.00,,,0.00,Wunderground v.1.15,2013-05-28 11:20:00,
2013-05-28 06:29:00,71.1,64.3,29.70,ESE,113,3.0,3.0,79,0.00,,,0.00,Wunderground v.1.15,2013-05-28 11:29:00,
2013-05-28 06:35:00,70.9,64.4,29.71,South,183,2.0,3.0,80,0.00,,,0.00,Wunderground v.1.15,2013-05-28 11:35:00,
2013-05-28 06:45:00,70.4,63.9,29.71,ESE,117,1.0,4.0,80,0.00,,,0.00,Wunderground v.1.15,2013-05-28 11:45:00,
2013-05-28 06:54:00,70.3,64.2,29.71,SE,124,2.0,3.0,81,0.00,,,0.00,Wunderground v.1.15,2013-05-28 11:54:00,
2013-05-28 07:00:00,70.1,64.0,29.71,SE,141,1.0,3.0,81,0.00,,,0.00,Wunderground v.1.15,2013-05-28 12:00:00,
2013-05-28 07:05:00,70.1,64.0,29.71,SE,144,2.0,3.0,81,0.00,,,0.00,Wunderground v.1.15,2013-05-28 12:05:00,
2013-05-28 07:14:00,70.1,64.0,29.71,SE,143,3.0,8.0,81,0.00,,,0.00,Wunderground v.1.15,2013-05-28 12:14:00,
2013-05-28 07:20:00,70.3,64.2,29.72,SE,146,3.0,3.0,81,0.00,,,0.00,Wunderground v.1.15,2013-05-28 12:20:00,
2013-05-28 07:30:00,70.6,64.1,29.72,SSE,157,2.0,4.0,80,0.00,,,0.00,Wunderground v.1.15,2013-05-28 12:30:00,
2013-05-28 07:40:00,71.1,64.3,29.72,SSE,158,3.0,5.0,79,0.00,,,0.00,Wunderground v.1.15,2013-05-28 12:40:00,
2013-05-28 07:49:00,71.8,64.6,29.72,SSE,153,4.0,4.0,78,0.00,,,0.00,Wunderground v.1.15,2013-05-28 12:49:00,
2013-05-28 07:55:00,71.8,64.6,29.72,South,188,3.0,4.0,78,0.00,,,0.00,Wunderground v.1.15,2013-05-28 12:55:00,
2013-05-28 08:05:00,71.8,64.6,29.73,SSE,155,3.0,6.0,78,0.00,,,0.00,Wunderground v.1.15,2013-05-28 13:05:00,
2013-05-28 08:15:00,72.0,64.8,29.73,SSE,161,2.0,5.0,78,0.00,,,0.00,Wunderground v.1.15,2013-05-28 13:15:00,
2013-05-28 08:25:00,72.3,65.1,29.73,SE,146,2.0,4.0,78,0.00,,,0.00,Wunderground v.1.15,2013-05-28 13:25:00,
2013-05-28 08:34:00,72.8,65.2,29.73,SSE,153,2.0,6.0,77,0.00,,,0.00,Wunderground v.1.15,2013-05-28 13:34:00,
2013-05-28 08:40:00,73.0,65.4,29.73,SSE,157,2.0,5.0,77,0.00,,,0.00,Wunderground v.1.15,2013-05-28 13:40:00,
2013-05-28 08:50:00,73.0,65.4,29.73,SE,134,4.0,4.0,77,0.00,,,0.00,Wunderground v.1.15,2013-05-28 13:50:00,
2013-05-28 08:59:00,73.9,65.9,29.73,SE,127,6.0,6.0,76,0.00,,,0.00,Wunderground v.1.15,2013-05-28 13:59:00,
2013-05-28 09:05:00,74.2,65.8,29.73,SE,134,6.0,6.0,75,0.00,,,0.00,Wunderground v.1.15,2013-05-28 14:05:00,
2013-05-28 09:15:00,74.2,65.8,29.73,SSE,148,5.0,7.0,75,0.00,,,0.00,Wunderground v.1.15,2013-05-28 14:15:00,
2013-05-28 09:24:00,74.2,65.8,29.73,SE,146,6.0,6.0,75,0.00,,,0.00,Wunderground v.1.15,2013-05-28 14:24:00,
2013-05-28 09:30:00,74.2,65.8,29.73,SSE,165,6.0,6.0,75,0.00,,,0.00,Wunderground v.1.15,2013-05-28 14:30:00,
2013-05-28 09:39:00,74.2,65.8,29.73,SE,132,6.0,15.0,75,0.00,,,0.00,Wunderground v.1.15,2013-05-28 14:39:00,
2013-05-28 09:45:00,74.4,66.0,29.73,South,171,7.0,15.0,75,0.00,,,0.00,Wunderground v.1.15,2013-05-28 14:45:00,
2013-05-28 09:55:00,74.9,66.4,29.72,SSE,157,6.0,7.0,75,0.00,,,0.00,Wunderground v.1.15,2013-05-28 14:55:00,
2013-05-28 10:05:00,75.3,66.0,29.73,South,180,6.0,6.0,73,0.00,,,0.00,Wunderground v.1.15,2013-05-28 15:05:00,
2013-05-28 10:10:00,75.4,65.3,29.73,SSE,165,6.0,6.0,71,0.00,,,0.00,Wunderground v.1.15,2013-05-28 15:10:00,
2013-05-28 10:19:00,75.3,67.2,29.74,SSE,161,6.0,6.0,76,0.00,,,0.00,Wunderground v.1.15,2013-05-28 15:19:00,
2013-05-28 10:25:00,75.1,65.5,29.74,SSE,167,6.0,6.0,72,0.00,,,0.00,Wunderground v.1.15,2013-05-28 15:25:00,
2013-05-28 10:35:00,74.9,66.1,29.75,SSE,159,5.0,6.0,74,0.00,,,0.00,Wunderground v.1.15,2013-05-28 15:35:00,
2013-05-28 10:45:00,76.5,67.2,29.75,SSE,167,4.0,6.0,73,0.00,,,0.00,Wunderground v.1.15,2013-05-28 15:45:00,
2013-05-28 10:50:00,77.4,67.3,29.75,South,186,5.0,5.0,71,0.00,,,0.00,Wunderground v.1.15,2013-05-28 15:50:00,
2013-05-28 11:00:00,77.4,66.0,29.75,SW,224,5.0,5.0,68,0.00,,,0.00,Wunderground v.1.15,2013-05-28 16:00:00,
2013-05-28 11:05:00,77.2,65.8,29.75,SSW,199,6.0,13.0,68,0.00,,,0.00,Wunderground v.1.15,2013-05-28 16:05:00,
2013-05-28 11:15:00,76.5,64.7,29.75,SE,144,7.0,10.0,67,0.00,,,0.00,Wunderground v.1.15,2013-05-28 16:15:00,
2013-05-28 11:25:00,76.1,63.9,29.75,SSW,194,7.0,9.0,66,0.00,,,0.00,Wunderground v.1.15,2013-05-28 16:25:00,
2013-05-28 11:35:00,76.0,63.8,29.75,SSW,211,6.0,7.0,66,0.00,,,0.00,Wunderground v.1.15,2013-05-28 16:35:00,
2013-05-28 11:45:00,75.4,64.5,29.75,South,183,5.0,5.0,69,0.00,,,0.00,Wunderground v.1.15,2013-05-28 16:45:00,
2013-05-28 11:50:00,74.7,65.1,29.75,South,182,3.0,3.0,72,0.00,,,0.01,Wunderground v.1.15,2013-05-28 16:50:00,
2013-05-28 12:00:00,73.7,64.9,29.75,South,186,3.0,3.0,74,0.06,,,0.02,Wunderground v.1.15,2013-05-28 17:00:00,
2013-05-28 12:05:00,73.5,65.1,29.76,SE,140,3.0,3.0,75,0.06,,,0.02,Wunderground v.1.15,2013-05-28 17:05:00,
2013-05-28 12:14:00,73.5,65.5,29.76,SSE,167,2.0,2.0,76,0.04,,,0.02,Wunderground v.1.15,2013-05-28 17:14:00,
2013-05-28 12:20:00,73.5,65.1,29.75,SSE,162,2.0,2.0,75,0.00,,,0.02,Wunderground v.1.15,2013-05-28 17:20:00,
2013-05-28 12:30:00,74.0,64.8,29.75,SSE,153,3.0,5.0,73,0.00,,,0.02,Wunderground v.1.15,2013-05-28 17:30:00,
2013-05-28 12:40:00,74.4,64.4,29.74,South,179,4.0,4.0,71,0.00,,,0.02,Wunderground v.1.15,2013-05-28 17:40:00,
2013-05-28 12:50:00,74.9,64.9,29.74,SSE,148,4.0,11.0,71,0.00,,,0.02,Wunderground v.1.15,2013-05-28 17:50:00,
2013-05-28 12:59:00,75.8,65.7,29.74,SSE,157,4.0,6.0,71,0.00,,,0.02,Wunderground v.1.15,2013-05-28 17:59:00,
2013-05-28 13:05:00,76.0,65.1,29.73,SSE,157,5.0,6.0,69,0.00,,,0.02,Wunderground v.1.15,2013-05-28 18:05:00,
2013-05-28 13:15:00,75.6,65.1,29.73,SSE,157,6.0,6.0,70,0.00,,,0.02,Wunderground v.1.15,2013-05-28 18:15:00,
2013-05-28 13:25:00,75.4,64.5,29.72,SSW,195,5.0,7.0,69,0.00,,,0.02,Wunderground v.1.15,2013-05-28 18:25:00,
2013-05-28 13:34:00,74.9,64.9,29.72,SE,139,6.0,11.0,71,0.00,,,0.02,Wunderground v.1.15,2013-05-28 18:34:00,
2013-05-28 13:40:00,74.7,64.7,29.72,South,180,6.0,6.0,71,0.00,,,0.02,Wunderground v.1.15,2013-05-28 18:40:00,
2013-05-28 13:50:00,75.1,64.6,29.73,SSW,192,4.0,7.0,70,0.00,,,0.02,Wunderground v.1.15,2013-05-28 18:50:00,
2013-05-28 13:59:00,75.4,65.3,29.73,SSE,148,3.0,10.0,71,0.00,,,0.02,Wunderground v.1.15,2013-05-28 18:59:00,
2013-05-28 14:05:00,75.6,65.5,29.72,SSE,157,3.0,10.0,71,0.00,,,0.02,Wunderground v.1.15,2013-05-28 19:05:00,
2013-05-28 14:15:00,76.3,65.4,29.72,SSE,168,4.0,6.0,69,0.00,,,0.02,Wunderground v.1.15,2013-05-28 19:15:00,
2013-05-28 14:25:00,76.7,64.0,29.72,SSE,161,7.0,7.0,65,0.00,,,0.02,Wunderground v.1.15,2013-05-28 19:25:00,
2013-05-28 14:30:00,77.0,64.8,29.72,SE,132,6.0,6.0,66,0.00,,,0.02,Wunderground v.1.15,2013-05-28 19:30:00,
2013-05-28 14:40:00,76.5,64.7,29.73,SSE,151,6.0,8.0,67,0.00,,,0.02,Wunderground v.1.15,2013-05-28 19:40:00,
2013-05-28 14:50:00,76.5,64.7,29.72,SSE,147,6.0,6.0,67,0.00,,,0.02,Wunderground v.1.15,2013-05-28 19:50:00,
2013-05-28 14:59:00,77.0,65.6,29.72,ESE,115,6.0,6.0,68,0.00,,,0.02,Wunderground v.1.15,2013-05-28 19:59:00,
2013-05-28 15:05:00,78.1,65.8,29.72,SSE,147,5.0,6.0,66,0.00,,,0.02,Wunderground v.1.15,2013-05-28 20:05:00,
2013-05-28 15:15:00,79.0,66.2,29.72,ENE,57,7.0,12.0,65,0.00,,,0.02,Wunderground v.1.15,2013-05-28 20:15:00,
2013-05-28 15:25:00,79.6,65.9,29.72,SSE,153,6.0,6.0,63,0.00,,,0.02,Wunderground v.1.15,2013-05-28 20:25:00,
2013-05-28 15:34:00,80.3,66.6,29.71,ENE,74,7.0,10.0,63,0.00,,,0.02,Wunderground v.1.15,2013-05-28 20:34:00,
2013-05-28 15:40:00,80.9,66.7,29.71,ESE,105,7.0,7.0,62,0.00,,,0.02,Wunderground v.1.15,2013-05-28 20:40:00,
2013-05-28 15:50:00,81.8,67.0,29.71,SSW,196,6.0,12.0,61,0.00,,,0.02,Wunderground v.1.15,2013-05-28 20:50:00,
2013-05-28 16:00:00,82.4,66.6,29.71,South,175,6.0,6.0,59,0.00,,,0.02,Wunderground v.1.15,2013-05-28 21:00:00,
2013-05-28 16:05:00,82.8,67.5,29.71,SSE,157,6.0,10.0,60,0.00,,,0.02,Wunderground v.1.15,2013-05-28 21:05:00,
2013-05-28 16:15:00,84.0,67.6,29.71,East,96,7.0,7.0,58,0.00,,,0.02,Wunderground v.1.15,2013-05-28 21:15:00,
2013-05-28 16:25:00,84.0,66.6,29.70,SE,136,7.0,9.0,56,0.00,,,0.02,Wunderground v.1.15,2013-05-28 21:25:00,
2013-05-28 16:34:00,83.6,65.2,29.69,South,186,9.0,16.0,54,0.00,,,0.02,Wunderground v.1.15,2013-05-28 21:34:00,
2013-05-28 16:40:00,83.8,63.7,29.69,South,185,9.0,9.0,51,0.00,,,0.02,Wunderground v.1.15,2013-05-28 21:40:00,
2013-05-28 16:50:00,83.6,64.1,29.70,SSE,159,9.0,9.0,52,0.00,,,0.02,Wunderground v.1.15,2013-05-28 21:50:00,
2013-05-28 16:59:00,82.4,65.1,29.70,SSW,208,7.0,7.0,56,0.00,,,0.02,Wunderground v.1.15,2013-05-28 21:59:00,
2013-05-28 17:05:00,82.8,63.9,29.70,WSW,238,6.0,7.0,53,0.00,,,0.02,Wunderground v.1.15,2013-05-28 22:05:00,
2013-05-28 17:15:00,82.4,64.6,29.70,South,186,8.0,8.0,55,0.00,,,0.02,Wunderground v.1.15,2013-05-28 22:15:00,
2013-05-28 17:24:00,82.8,63.9,29.69,SSE,152,9.0,13.0,53,0.00,,,0.02,Wunderground v.1.15,2013-05-28 22:24:00,
2013-05-28 17:30:00,82.6,64.3,29.69,South,180,9.0,9.0,54,0.00,,,0.02,Wunderground v.1.15,2013-05-28 22:30:00,
2013-05-28 17:40:00,82.4,65.1,29.69,ESE,117,6.0,6.0,56,0.00,,,0.02,Wunderground v.1.15,2013-05-28 22:40:00,
2013-05-28 17:50:00,82.4,64.6,29.68,SE,143,7.0,7.0,55,0.00,,,0.02,Wunderground v.1.15,2013-05-28 22:50:00,
2013-05-28 18:00:00,82.2,63.9,29.68,SSE,148,7.0,11.0,54,0.00,,,0.02,Wunderground v.1.15,2013-05-28 23:00:00,
2013-05-28 18:05:00,81.6,63.9,29.69,SE,143,8.0,11.0,55,0.00,,,0.02,Wunderground v.1.15,2013-05-28 23:05:00,
2013-05-28 18:15:00,81.4,63.7,29.69,SSE,155,8.0,8.0,55,0.00,,,0.02,Wunderground v.1.15,2013-05-28 23:15:00,
2013-05-28 18:25:00,81.1,64.9,29.70,SSE,154,5.0,7.0,58,0.00,,,0.02,Wunderground v.1.15,2013-05-28 23:25:00,
2013-05-28 18:35:00,80.5,64.9,29.70,South,186,7.0,7.0,59,0.00,,,0.02,Wunderground v.1.15,2013-05-28 23:35:00,
2013-05-28 18:45:00,79.9,64.3,29.70,South,186,6.0,9.0,59,0.00,,,0.02,Wunderground v.1.15,2013-05-28 23:45:00,
2013-05-28 18:50:00,79.9,64.3,29.70,SSE,167,6.0,6.0,59,0.00,,,0.02,Wunderground v.1.15,2013-05-28 23:50:00,
2013-05-28 19:00:00,79.6,64.0,29.70,SSE,149,6.0,6.0,59,0.00,,,0.02,Wunderground v.1.15,2013-05-29 00:00:00,
2013-05-28 19:05:00,79.6,64.0,29.70,South,176,6.0,6.0,59,0.00,,,0.02,Wunderground v.1.15,2013-05-29 00:05:00,
2013-05-28 19:15:00,79.4,63.8,29.70,SSE,165,7.0,7.0,59,0.00,,,0.02,Wunderground v.1.15,2013-05-29 00:15:00,
2013-05-28 19:25:00,79.2,63.6,29.70,South,175,6.0,9.0,59,0.00,,,0.02,Wunderground v.1.15,2013-05-29 00:25:00,
2013-05-28 19:35:00,78.8,64.2,29.70,South,169,5.0,6.0,61,0.00,,,0.02,Wunderground v.1.15,2013-05-29 00:35:00,
2013-05-28 19:44:00,78.5,64.4,29.70,SE,137,3.0,5.0,62,0.00,,,0.02,Wunderground v.1.15,2013-05-29 00:44:00,
2013-05-28 19:50:00,78.5,64.4,29.70,ENE,74,3.0,3.0,62,0.00,,,0.02,Wunderground v.1.15,2013-05-29 00:50:00,
2013-05-28 20:00:00,77.9,64.3,29.70,SE,128,4.0,4.0,63,0.00,,,0.02,Wunderground v.1.15,2013-05-29 01:00:00,
2013-05-28 20:05:00,77.6,64.5,29.69,SSE,167,3.0,4.0,64,0.00,,,0.02,Wunderground v.1.15,2013-05-29 01:05:00,
2013-05-28 20:10:00,77.2,64.1,29.69,SSW,207,2.0,3.0,64,0.00,,,0.02,Wunderground v.1.15,2013-05-29 01:10:00,
2013-05-28 20:20:00,76.7,64.0,29.68,South,187,3.0,4.0,65,0.00,,,0.02,Wunderground v.1.15,2013-05-29 01:20:00,
2013-05-28 20:30:00,76.1,63.5,29.68,South,178,2.0,5.0,65,0.00,,,0.02,Wunderground v.1.15,2013-05-29 01:30:00,
2013-05-28 20:35:00,76.0,63.4,29.69,SSE,161,3.0,5.0,65,0.00,,,0.02,Wunderground v.1.15,2013-05-29 01:35:00,
2013-05-28 20:45:00,75.6,63.0,29.69,SSE,161,4.0,9.0,65,0.00,,,0.02,Wunderground v.1.15,2013-05-29 01:45:00,
2013-05-28 20:54:00,75.4,62.8,29.69,SE,132,4.0,6.0,65,0.00,,,0.02,Wunderground v.1.15,2013-05-29 01:54:00,
2013-05-28 21:00:00,75.3,62.7,29.69,East,96,2.0,2.0,65,0.00,,,0.02,Wunderground v.1.15,2013-05-29 02:00:00,
2013-05-28 21:05:00,75.3,62.7,29.70,SSE,152,2.0,2.0,65,0.00,,,0.02,Wunderground v.1.15,2013-05-29 02:05:00,
2013-05-28 21:10:00,75.1,62.5,29.70,SE,134,2.0,4.0,65,0.00,,,0.02,Wunderground v.1.15,2013-05-29 02:10:00,
2013-05-28 21:15:00,75.1,62.5,29.70,SSE,153,2.0,4.0,65,0.00,,,0.02,Wunderground v.1.15,2013-05-29 02:15:00,
2013-05-28 21:25:00,74.7,62.1,29.71,SSE,165,2.0,3.0,65,0.00,,,0.02,Wunderground v.1.15,2013-05-29 02:25:00,
2013-05-28 21:35:00,74.4,62.3,29.72,SSE,163,2.0,2.0,66,0.00,,,0.02,Wunderground v.1.15,2013-05-29 02:35:00,
2013-05-28 21:45:00,74.0,62.3,29.72,South,169,1.0,4.0,67,0.00,,,0.02,Wunderground v.1.15,2013-05-29 02:45:00,
2013-05-28 21:55:00,73.7,62.1,29.74,SSE,164,1.0,2.0,67,0.00,,,0.02,Wunderground v.1.15,2013-05-29 02:55:00,
2013-05-28 22:00:00,73.5,62.3,29.74,SSE,164,1.0,1.0,68,0.00,,,0.02,Wunderground v.1.15,2013-05-29 03:00:00,
2013-05-28 22:05:00,73.3,62.1,29.75,South,182,0.0,3.0,68,0.00,,,0.02,Wunderground v.1.15,2013-05-29 03:05:00,
2013-05-28 22:15:00,73.2,62.4,29.75,South,182,0.0,0.0,69,0.00,,,0.02,Wunderground v.1.15,2013-05-29 03:15:00,
2013-05-28 22:25:00,72.5,61.7,29.76,South,182,0.0,0.0,69,0.00,,,0.02,Wunderground v.1.15,2013-05-29 03:25:00,
2013-05-28 22:35:00,72.0,62.1,29.77,South,182,0.0,0.0,71,0.00,,,0.02,Wunderground v.1.15,2013-05-29 03:35:00,
2013-05-28 22:40:00,71.6,62.1,29.77,South,182,0.0,0.0,72,0.00,,,0.02,Wunderground v.1.15,2013-05-29 03:40:00,
2013-05-28 22:49:00,70.6,61.9,29.77,South,182,0.0,0.0,74,0.00,,,0.02,Wunderground v.1.15,2013-05-29 03:49:00,
2013-05-28 22:55:00,70.1,61.8,29.77,South,182,0.0,0.0,75,0.00,,,0.02,Wunderground v.1.15,2013-05-29 03:55:00,
2013-05-28 23:05:00,69.8,61.9,29.77,South,182,0.0,0.0,76,0.00,,,0.02,Wunderground v.1.15,2013-05-29 04:05:00,
2013-05-28 23:10:00,69.6,61.7,29.77,South,182,0.0,0.0,76,0.00,,,0.02,Wunderground v.1.15,2013-05-29 04:10:00,
2013-05-28 23:20:00,69.6,61.7,29.77,South,182,0.0,0.0,76,0.00,,,0.02,Wunderground v.1.15,2013-05-29 04:20:00,
2013-05-28 23:25:00,69.6,61.7,29.77,South,182,0.0,0.0,76,0.00,,,0.02,Wunderground v.1.15,2013-05-29 04:25:00,
2013-05-28 23:30:00,69.6,61.7,29.77,South,182,0.0,0.0,76,0.00,,,0.02,Wunderground v.1.15,2013-05-29 04:30:00,
2013-05-28 23:35:00,69.6,61.7,29.78,South,182,0.0,0.0,76,0.00,,,0.02,Wunderground v.1.15,2013-05-29 04:35:00,
2013-05-28 23:45:00,69.6,61.3,29.78,South,182,0.0,0.0,75,0.00,,,0.02,Wunderground v.1.15,2013-05-29 04:45:00,
2013-05-28 23:50:00,69.8,61.5,29.78,South,175,0.0,0.0,75,0.00,,,0.02,Wunderground v.1.15,2013-05-29 04:50:00,
2013-05-28 23:59:00,69.9,61.6,29.78,South,175,0.0,0.0,75,0.00,,,0.02,Wunderground v.1.15,2013-05-29 04:59:00,